• In India
  • List of Countries
  • For 7 days
  • Water Temperature
  • Satellite Maps
  • Weather Map
  • Weather Widgets
  • user-avatar
    Login

    Hourly Weather Durres

    Today, 15 October, Monday

    Time Temperature Precipitation Wind Pressure Humidity
    00:00 +18°C° 0 mm 2 mps 763 mmHg 55%
    01:00 +18°C° 0 mm 2 mps 763 mmHg 55%
    02:00 +18°C° 0 mm 2 mps 763 mmHg 56%
    03:00 +17°C° 0 mm 2 mps 763 mmHg 58%
    04:00 +17°C° 0 mm 3 mps 763 mmHg 60%
    05:00 +17°C° 0 mm 3 mps 763 mmHg 60%
    06:00 +18°C° 0 mm 3 mps 763 mmHg 60%
    07:00 +19°C° 0 mm 3 mps 762 mmHg 58%
    08:00 +21°C° 0 mm 3 mps 762 mmHg 52%
    09:00 +24°C° 0 mm 2 mps 762 mmHg 46%
    10:00 +26°C° 0 mm 2 mps 762 mmHg 40%
    11:00 +27°C° 0 mm 2 mps 762 mmHg 38%
    12:00 +28°C° 0 mm 2 mps 762 mmHg 36%
    13:00 +28°C° 0 mm 2 mps 762 mmHg 35%
    14:00 +28°C° 0 mm 2 mps 762 mmHg 38%
    15:00 +27°C° 0 mm 2 mps 762 mmHg 41%
    16:00 +26°C° 0 mm 3 mps 762 mmHg 43%
    17:00 +25°C° 0 mm 2 mps 762 mmHg 48%
    18:00 +23°C° 0 mm 2 mps 762 mmHg 54%
    19:00 +21°C° 0 mm 1 mps 763 mmHg 59%
    20:00 +21°C° 0 mm 1 mps 763 mmHg 60%
    21:00 +20°C° 0 mm 1 mps 763 mmHg 60%
    22:00 +20°C° 0 mm 1 mps 763 mmHg 61%
    23:00 +19°C° 0 mm 2 mps 763 mmHg 61%

    Tomorrow, 16 October, Tuesday

    Time Temperature Precipitation Wind Pressure Humidity
    00:00 +18°C° 0 mm 2 mps 764 mmHg 61%
    01:00 +18°C° 0 mm 2 mps 764 mmHg 62%
    02:00 +18°C° 0 mm 2 mps 763 mmHg 62%
    03:00 +17°C° 0 mm 2 mps 763 mmHg 62%
    04:00 +17°C° 0 mm 2 mps 763 mmHg 63%
    05:00 +18°C° 0 mm 2 mps 763 mmHg 61%
    06:00 +18°C° 0 mm 2 mps 764 mmHg 60%
    07:00 +18°C° 0 mm 3 mps 764 mmHg 59%
    08:00 +21°C° 0 mm 2 mps 764 mmHg 52%
    09:00 +24°C° 0 mm 2 mps 764 mmHg 45%
    10:00 +27°C° 0 mm 1 mps 764 mmHg 38%
    11:00 +27°C° 0 mm 2 mps 764 mmHg 36%
    12:00 +28°C° 0 mm 2 mps 763 mmHg 35%
    13:00 +29°C° 0 mm 2 mps 763 mmHg 33%
    14:00 +28°C° 0 mm 2 mps 763 mmHg 37%
    15:00 +27°C° 0 mm 2 mps 763 mmHg 40%
    16:00 +26°C° 0 mm 2 mps 763 mmHg 43%
    17:00 +24°C° 0 mm 2 mps 763 mmHg 49%
    18:00 +23°C° 0 mm 1 mps 763 mmHg 55%
    19:00 +21°C° 0 mm 1 mps 763 mmHg 61%
    20:00 +20°C° 0 mm 1 mps 763 mmHg 60%
    21:00 +20°C° 0 mm 1 mps 763 mmHg 59%
    22:00 +20°C° 0 mm 1 mps 763 mmHg 58%
    23:00 +20°C° 0 mm 1 mps 763 mmHg 58%

    Day after tomorrow, 17 October, Wednesday

    Time Temperature Precipitation Wind Pressure Humidity
    00:00 +20°C° 0 mm 1 mps 763 mmHg 58%
    01:00 +19°C° 0 mm 1 mps 763 mmHg 57%
    02:00 +18°C° 0 mm 2 mps 763 mmHg 57%
    03:00 +18°C° 0 mm 2 mps 762 mmHg 58%
    04:00 +18°C° 0 mm 2 mps 762 mmHg 58%
    05:00 +18°C° 0 mm 2 mps 762 mmHg 57%
    06:00 +18°C° 0 mm 2 mps 762 mmHg 57%
    07:00 +19°C° 0 mm 2 mps 762 mmHg 56%
    08:00 +21°C° 0 mm 2 mps 762 mmHg 49%
    09:00 +25°C° 0 mm 1 mps 762 mmHg 42%
    10:00 +28°C° 0 mm 1 mps 762 mmHg 34%
    11:00 +28°C° 0 mm 1 mps 761 mmHg 32%
    12:00 +29°C° 0 mm 2 mps 761 mmHg 30%
    13:00 +30°C° 0 mm 2 mps 761 mmHg 28%
    14:00 +29°C° 0 mm 2 mps 760 mmHg 32%
    15:00 +28°C° 0 mm 2 mps 760 mmHg 36%
    16:00 +27°C° 0 mm 2 mps 760 mmHg 40%
    17:00 +25°C° 0 mm 2 mps 760 mmHg 45%
    18:00 +23°C° 0 mm 1 mps 760 mmHg 51%
    19:00 +21°C° 0 mm 1 mps 761 mmHg 56%
    20:00 +21°C° 0 mm 1 mps 761 mmHg 54%
    21:00 +21°C° 0 mm 1 mps 761 mmHg 53%
    22:00 +20°C° 0 mm 1 mps 761 mmHg 51%
    23:00 +20°C° 0 mm 1 mps 761 mmHg 50%

    18 October, Thursday

    Time Temperature Precipitation Wind Pressure Humidity
    00:00 +20°C° 0 mm 1 mps 761 mmHg 50%
    01:00 +19°C° 0 mm 1 mps 761 mmHg 49%
    02:00 +18°C° 0 mm 2 mps 760 mmHg 49%
    03:00 +18°C° 0 mm 2 mps 760 mmHg 50%
    04:00 +18°C° 0 mm 2 mps 760 mmHg 50%
    05:00 +18°C° 0 mm 2 mps 760 mmHg 51%
    06:00 +18°C° 0 mm 2 mps 760 mmHg 51%
    07:00 +19°C° 0 mm 2 mps 760 mmHg 51%
    08:00 +21°C° 0 mm 2 mps 760 mmHg 44%
    09:00 +25°C° 0 mm 2 mps 760 mmHg 38%
    10:00 +28°C° 0 mm 1 mps 760 mmHg 31%
    11:00 +28°C° 0 mm 1 mps 759 mmHg 29%
    12:00 +29°C° 0 mm 2 mps 759 mmHg 28%
    13:00 +30°C° 0 mm 2 mps 759 mmHg 26%
    14:00 +29°C° 0 mm 2 mps 759 mmHg 29%
    15:00 +28°C° 0 mm 2 mps 759 mmHg 33%
    16:00 +27°C° 0 mm 2 mps 759 mmHg 36%
    17:00 +25°C° 0 mm 2 mps 759 mmHg 41%
    18:00 +23°C° 0 mm 1 mps 759 mmHg 46%
    19:00 +21°C° 0 mm 1 mps 760 mmHg 50%
    20:00 +21°C° 0 mm 1 mps 760 mmHg 50%
    21:00 +21°C° 0 mm 1 mps 760 mmHg 49%
    22:00 +21°C° 0 mm 1 mps 760 mmHg 49%
    23:00 +20°C° 0 mm 1 mps 760 mmHg 49%

    19 October, Friday

    Time Temperature Precipitation Wind Pressure Humidity
    00:00 +19°C° 0 mm 2 mps 760 mmHg 50%
    01:00 +19°C° 0 mm 2 mps 760 mmHg 50%
    02:00 +19°C° 0 mm 2 mps 760 mmHg 51%
    03:00 +18°C° 0 mm 2 mps 760 mmHg 52%
    04:00 +19°C° 0 mm 1 mps 760 mmHg 52%
    05:00 +19°C° 0 mm 2 mps 760 mmHg 52%
    06:00 +19°C° 0 mm 2 mps 760 mmHg 52%
    07:00 +19°C° 0 mm 3 mps 760 mmHg 52%
    08:00 +23°C° 0 mm 2 mps 760 mmHg 45%
    09:00 +26°C° 0 mm 2 mps 760 mmHg 38%
    10:00 +28°C° 0 mm 1 mps 760 mmHg 31%
    11:00 +29°C° 0 mm 2 mps 760 mmHg 30%
    12:00 +30°C° 0 mm 3 mps 760 mmHg 28%
    13:00 +30°C° 0 mm 3 mps 760 mmHg 26%
    14:00 +29°C° 0 mm 4 mps 760 mmHg 29%
    15:00 +28°C° 0 mm 4 mps 760 mmHg 32%
    16:00 +27°C° 0 mm 4 mps 760 mmHg 36%
    17:00 +26°C° 0 mm 4 mps 760 mmHg 40%
    18:00 +23°C° 0 mm 4 mps 760 mmHg 44%
    19:00 +21°C° 0 mm 4 mps 761 mmHg 48%
    20:00 +21°C° 0 mm 3 mps 761 mmHg 47%
    21:00 +20°C° 0 mm 3 mps 761 mmHg 47%
    22:00 +20°C° 0 mm 2 mps 761 mmHg 46%
    23:00 +20°C° 0 mm 2 mps 761 mmHg 47%

    20 October, Saturday

    Time Temperature Precipitation Wind Pressure Humidity
    00:00 +20°C° 0 mm 2 mps 761 mmHg 47%
    01:00 +19°C° 0 mm 2 mps 761 mmHg 48%
    02:00 +19°C° 0 mm 3 mps 761 mmHg 48%
    03:00 +19°C° 0 mm 3 mps 762 mmHg 49%
    04:00 +19°C° 0 mm 3 mps 762 mmHg 50%
    05:00 +19°C° 0 mm 3 mps 762 mmHg 50%
    06:00 +19°C° 0 mm 3 mps 762 mmHg 50%
    07:00 +19°C° 0 mm 2 mps 762 mmHg 51%
    08:00 +23°C° 0 mm 2 mps 762 mmHg 45%
    09:00 +26°C° 0 mm 2 mps 762 mmHg 39%
    10:00 +28°C° 0 mm 2 mps 762 mmHg 33%
    11:00 +29°C° 0 mm 3 mps 762 mmHg 31%
    12:00 +29°C° 0 mm 4 mps 762 mmHg 30%
    13:00 +30°C° 0 mm 5 mps 762 mmHg 28%
    14:00 +29°C° 0 mm 5 mps 761 mmHg 32%
    15:00 +28°C° 0 mm 5 mps 761 mmHg 35%
    16:00 +27°C° 0 mm 5 mps 761 mmHg 38%
    17:00 +25°C° 0 mm 4 mps 761 mmHg 44%
    18:00 +22°C° 0 mm 4 mps 762 mmHg 49%
    19:00 +20°C° 0 mm 4 mps 762 mmHg 55%
    20:00 +20°C° 0 mm 4 mps 762 mmHg 55%
    21:00 +20°C° 0 mm 4 mps 762 mmHg 55%
    22:00 +19°C° 0 mm 4 mps 763 mmHg 55%
    23:00 +19°C° 0 mm 4 mps 763 mmHg 56%
    Show more